Regional Weather Roundup
Issued by NWS

Home | Current Version | Previous Version | Text Only | Print | Product List | Glossary On
Versions: 1 2 3 4 5 6 7 8 9 10 11 12 13 14 15 16 17 18 19 20 21 22 23 24 25 26 27 28 29 30 31 32 33 34 35 36 37 38 39 40 41 42 43 44 45 46 47 48 49 50
176
ASUS44 KLIX 270510
RWRLA
LOUISIANA WEATHER ROUNDUP
NATIONAL WEATHER SERVICE NEW ORLEANS LA
1100 PM CST THU FEB 26 2015

NOTE: "FAIR" INDICATES FEW OR NO CLOUDS BELOW 12,000 FEET WITH NO
      SIGNIFICANT WEATHER AND/OR OBSTRUCTIONS TO VISIBILITY.
      SKY/WX - SKY CONDITION AND SIGNIFICANT WEATHER.
      TMP - AIR TEMPERATURE.    DP   - DEWPOINT TEMPERATURE.
      RH  - RELATIVE HUMIDITY.  PRES - PRESSURE.
      HX  - HEAT INDEX.         WCI  - WIND CHILL INDEX.

*  THESE STATIONS ARE NOT NWS OR FAA STATIONS AND ARE NOT UNDER
   NWS QUALITY CONTROL.

LAZ040-048-061>063-065-066-069-270600-
SOUTHEAST LOUISIANA

CITY           SKY/WX    TMP DP  RH WIND       PRES   REMARKS
N.O. AUDUBON     N/A     44  35  71 MISG        N/A
N.O. INTL ARPT MOCLDY    43  34  70 N14       30.26S
N.O. LAKEFRONT MOCLDY    45  35  68 N20       30.26S
SLIDELL        MOCLDY    40  32  73 N10       30.26S WCI  33
BATON ROUGE    PTCLDY    36  31  82 N5        30.30R WCI  32
BOOTHVILLE     CLOUDY    49  36  61 N9G21     30.23R
BELLE CHASSE   CLOUDY    45  32  60 N12G22    30.24S
BOGALUSA*        N/A     36  32  83 N9        30.31R WCI  29
GALLIANO*      CLOUDY    47  38  72 N7        30.24S
NEW ROADS*     CLOUDY    36  30  79 N13       30.32S WCI  27
GONZALES*      FAIR      38  33  82 N10       30.29R WCI  31
HAMMOND*       CLEAR     37  32  81 N15       30.30S WCI  28
HOUMA*         CLOUDY    43  35  73 N13       30.25S
PORT FOURCHON* CLEAR     48  37  66 NE13      30.26S

$$

LAZ041-044-053-054-270600-
SOUTHWEST LOUISIANA

CITY           SKY/WX    TMP DP  RH WIND       PRES   REMARKS
LAKE CHARLES   MOCLDY    41  35  79 N9        30.30R
LAFAYETTE      MOCLDY    38  32  79 N17       30.30R WCI  28
PATTERSON      PTCLDY    41  34  75 N15       30.28R
SALT POINT       N/A     41  34  76 N8        30.26R
NEW IBERIA     CLEAR     38  32  79 N14       30.30R WCI  30
CHENAULT AIRPK CLOUDY    40  35  83 N7        30.31R

$$

LAZ027-028-270600-
CENTRAL LOUISIANA

CITY           SKY/WX    TMP DP  RH WIND       PRES   REMARKS
FORT POLK      CLOUDY    38  33  81 NE9       30.33R WCI  32
ALEXANDRIA INT CLOUDY    38  32  79 N8        30.34R WCI  32
ALEXANDRIA     CLOUDY    39  30  70 NE10      30.35R WCI  32

$$

LAZ001-002-270600-
NORTHWEST LOUISIANA

CITY           SKY/WX    TMP DP  RH WIND       PRES   REMARKS
SHREVEPORT     MOCLDY    35  30  82 N7        30.38S WCI  29
BARKSDALE AFB  MOCLDY    31  29  92 N5        30.39R WCI  27
DTN SHREVEPORT CLOUDY    32  29  88 N3        30.40R

$$

LAZ014-016-270600-
NORTHEAST LOUISIANA

CITY           SKY/WX    TMP DP  RH WIND       PRES   REMARKS
MONROE         PTCLDY    32  28  85 N7        30.40R WCI  26
TALLULAH       CLOUDY    34  28  79 N12       30.37F WCI  25

$$




USA.gov is the U.S. government's official web portal to all federal, state and local government web resources and services.